Other Public Products
Issued by NWS Grand Forks, ND

Home | Current Version | Previous Version | Graphics & Text | Print | Product List | Glossary On
Versions: 1 2 3 4 5 6 7 8 9 10 11 12 13 14 15 16 17 18 19 20 21 22 23 24 25 26 27 28 29 30 31 32 33 34 35 36 37 38 39 40 41 42 43 44 45 46 47 48 49 50
000
FPUS83 KFGF 221431
OPUFGF
PRAIRIE TO PINES WEATHER ROUNDUP
NATIONAL WEATHER SERVICE EASTERN NORTH DAKOTA/GRAND FORKS ND
800 AM CST SAT NOV 22 2014

 **SATELLITE DATA USED TO AUGMENT SKY COVER AT AUTOMATED STATIONS**
 *****  WEATHER ACROSS EASTERN NORTH DAKOTA  *****

CITY           SKY/WX    TMP DP  RH WIND       PRES   REMARKS
GRAND FORKS    FAIR      19  16  88 S6        29.60R WCI  11
GRAND FORKS AF NOT AVBL
GRAND CITY NWS   N/A     21 N/A N/A S3          N/A
BUXTON           N/A     19  19  98 S6          N/A  WCI  11
DEVILS LAKE    FAIR      25  16  68 SE6       29.53F WCI  18
FARGO          FAIR      23  20  88 S5        29.64S WCI  17
WAHPETON ARPT  FAIR      21  18  86 SE8       29.65F WCI  12
$$

 *****  WEATHER ACROSS CENTRAL AND WESTERN NORTH DAKOTA  *****

CITY           SKY/WX    TMP DP  RH WIND       PRES   REMARKS
JAMESTOWN      FAIR      23  21  92 S5        29.56F WCI  17
BISMARCK       PTCLDY    25  22  88 CALM      29.54F
MINOT          FAIR      25  22  88 SE6       29.47F WCI  18
MINOT AFB      FAIR      20  20  98 S7        29.47F WCI  11
GARRISON         N/A     30  27  88 SE6       29.48F WCI  24
WILLISTON      CLOUDY    30  27  88 W3        29.42F
DICKINSON      CLOUDY    33  25  72 S10       29.43F WCI  25
HETTINGER      CLOUDY    26  21  81 E3        29.48F
$$

 *****  OTHER OBSERVATIONS NORTHEAST NORTH DAKOTA  *****

CITY           SKY/WX    TMP DP  RH WIND       PRES   REMARKS
WALHALLA         N/A     32  32 100 NE6       29.60S
LANGDON        CLOUDY    32  28  86 E8        29.54F FOG     WCI  25
CAVALIER       CLOUDY    32  28  86 N6        29.59F
GRAFTON        CLOUDY    28  27  93 CALM      29.59S
CANDO          FOG       18  16  93 SE6       29.54S VSB 1/4 WCI   9
FORT TOTTEN    NOT AVBL
ROLLA          PTSUNNY   18  18 100 CALM      29.52F
RUGBY          FAIR      18  18 100 SE6       29.51F WCI   9
 ***** THE ABOVE OBSERVATIONS ARE NON NWS ARE NOT QUALITY
        CONTROLLED AND MAY MIS-REPORT RAIN FOR SNOW...
$$

 *****  OTHER OBSERVATIONS SOUTHEAST NORTH DAKOTA *****

CITY           SKY/WX    TMP DP  RH WIND       PRES   REMARKS
COOPERSTOWN    NOT AVBL
VALLEY CITY    FAIR      18  18 100 S8        29.58F WCI   7
OAKES            N/A     19  19 100 S13       29.61F WCI   7
GWINNER        SUNNY     30  27  86 SW17      29.62F WCI  18
BUFFALO        NOT AVBL
WYNDMERE         N/A     27  23  86 S3          N/A
 ***** THE ABOVE OBSERVATIONS ARE NON NWS ARE NOT QUALITY
       CONTROLLED AND MAY MIS-REPORT RAIN FOR SNOW...
$$

  *****  WEATHER ACROSS NORTHERN MINNESOTA  *****

CITY           SKY/WX    TMP DP  RH WIND       PRES   REMARKS
FLAG ISLAND    CLOUDY    30  27  86 NW5       29.61R
WARROAD        CLOUDY    32  28  86 CALM      29.61S
ROSEAU         CLOUDY    34  28  80 CALM      29.60S
HALLOCK        CLOUDY    28  27  93 SE3       29.60S
THF RVR FALLS  FAIR      23  21  93 S8        29.60F WCI  14
HALSTAD          N/A     23  21  94 S8          N/A  WCI  13
FOSSTON        FAIR      19  18  93 S8        29.63S WCI   9
BAUDETTE       CLOUDY    32  28  85 SW5       29.60S
WASKISH        CLOUDY    34  30  86 CALM      29.62S
CROOKSTON      FAIR      21  19  93 S8        29.62S WCI  12
$$
  *****  WEATHER ACROSS CENTRAL AND WEST MINNESOTA  *****

CITY           SKY/WX    TMP DP  RH WIND       PRES   REMARKS
BEMIDJI          N/A     16  14  93 E3        29.62F FOG
PARK RAPIDS    FAIR      21  20  96 SE6       29.64F FOG     WCI  13
WADENA         FOG       18  18 100 CALM      29.65F VSB<1/4
DETROIT LAKES  FAIR      27  27 100 S6        29.64F FOG     WCI  20
MOORHEAD       FAIR      25  25 100 S6        29.65R WCI  18
FERGUS FALLS   FAIR      25  21  86 S9        29.68F WCI  15
ELBOW LAKE       N/A     24  22  93 SE8       29.67S WCI  14
MORRIS MN      FAIR      23  21  93 SE8       29.66F FOG     WCI  14
STAPLES        FAIR      21  21 100 CALM      29.66F FOG
WHEATON        FAIR      28  25  86 SE9       29.67F WCI  20
$$
  *****  WEATHER ELSEWHERE ACROSS MINNESOTA  *****

CITY           SKY/WX    TMP DP  RH WIND       PRES   REMARKS
DULUTH         FAIR      28  26  92 SW8       29.68S FOG     WCI  20
INTRNTL FALLS  CLOUDY    31  27  85 SW5       29.61R
ELY            CLOUDY    27  27 100 SW6       29.64S FOG     WCI  20
CLOQUET        FAIR      28  27  93 SW7       29.69R FOG     WCI  21
BRAINERD       FAIR      22  22 100 SW6       29.69R FOG     WCI  14
HIBBING        CLOUDY    25  22  88 CALM      29.67S FOG
ALEXANDRIA     FAIR      26  24  92 S8        29.68F FOG     WCI  18
SAINT CLOUD    FAIR      25  22  88 S6        29.73S FOG     WCI  18
MINNEAPOLIS    CLOUDY    35  32  88 S10       29.78F FOG
$$

  *****  WEATHER ACROSS SOUTH DAKOTA  *****

CITY           SKY/WX    TMP DP  RH WIND       PRES   REMARKS
SIOUX FALLS    FOG       28  28 100 S6        29.74F VSB 1/4 WCI  22
BROOKINGS      NOT AVBL
WATERTOWN      FAIR      22  20  92 S9        29.68F FOG     WCI  12
HURON          CLEAR     21  20  96 SE5       29.67F FOG     WCI  15
SISSETON         N/A     35  26  69 SW13      29.63F
ABERDEEN       CLEAR     20  17  88 S8        29.65F WCI  10
MITCHELL       CLEAR     25  23  92 S8        29.71F FOG     WCI  16
PIERRE         CLEAR     23  20  88 SE8       29.59F FOG     WCI  14
MOBRIDGE       CLEAR     29  25  85 SE10      29.53F WCI  20
RAPID CITY     CLOUDY    45  24  43 W12G21    29.51F
$$

  *****  SOME WEATHER IN NEARBY STATES *****

CITY           SKY/WX    TMP DP  RH WIND       PRES   REMARKS
GLASGOW MT     CLOUDY    35  29  78 SE15      29.31F
GREAT FALLS MT PTCLDY    45  34  65 SW28G38   29.27F
CHEYENNE WY    CLOUDY    33  16  49 S8        29.74F
SCOTTSBLUFF NE MOCLDY    26  20  77 SE6       29.71F WCI  19
OMAHA NE       CLOUDY    39  38  96 S6        29.86F FOG
DES MOINES IA  CLOUDY    41  39  93 SW9       29.90S FOG
DAVENPORT IA   CLOUDY    41  39  93 S12       29.96F FOG
CHICAGO IL     FOG       37  36  96 SW12      30.01F VSB 1/2
EAU CLAIRE WI  CLOUDY    35  32  88 SW12      29.81F FOG
LA CROSSE WI   CLOUDY    36  33  89 S9        29.85F FOG
$$

  *****  SOME NATIONAL WEATHER *****

CITY           SKY/WX    TMP DP  RH WIND       PRES   REMARKS
LA GUARDIA NY  FAIR      31  10  41 SW12      30.48F WCI  22
RALEIGH NC     FAIR      33  18  53 SW3       30.59R
ATLANTA GA     MOSUNNY   42  27  55 E12       30.47R
NEW ORLEANS LA MOSUNNY   59  52  77 E7        30.21S
OKLAHOMA CITY  TSTM      59  56  89 SE25G32   30.00S FOG
ALBUQUERQUE NM PTCLDY    32  19  58 N5        30.10R
SALT LAKE CITY MOCLDY    45  24  43 S20       29.87F
LOS ANGELES CA PTCLDY    55  43  63 CALM      30.08R
BOISE ID       LGT RAIN  44  39  82 S5        29.70R
SEATTLE WA     CLOUDY    46  40  79 S17G23    29.68R
$$

*** WEATHER ACROSS MANITOBA...SASKATCHEWAN AND ONTARIO ***
                ***ONTARIO***

CITY           SKY/WX    TMP DP  RH WIND       PRES   REMARKS
GERALDTON      LGT SNOW  28  27  93 SW10      29.54  WCI  19
THUNDER BAY    MOCLDY    25  23  93 NW3       29.64S
SIOUX LOOKOUT  CLOUDY    28  23  80 NW9       29.57R WCI  20
TORONTO        CLOUDY    32  23  69 S10       30.11F WCI  24
BIG TROUT LK   LGT SNOW   1  -2  85 NW13G20   29.59R WCI -16
PICKLE LAKE    FLURRIES  23  18  80 NW8G17    29.54R WCI  14
DRYDEN         CLOUDY    28  25  86 NW7       29.58R WCI  21
KENORA         FLURRIES  27  25  93 NW2       29.59R
$$
                *** MANITOBA***

CITY           SKY/WX    TMP DP  RH WIND       PRES   REMARKS
BRANDON        FRZ DRZL  27  25  93 E14G22    29.56F FOG     WCI  15
DAUPHIN        NOT AVBL
ISLAND LAKE    FLURRIES   1  -2  85 NW5       29.66R WCI  -8
PILOT MOUND      N/A     28  28 100 E10         N/A  WCI  19
THE PAS        CLOUDY    12   9  85 E7        29.63F WCI   2
THOMPSON       CRYSTALS -13 -18  77 N2        29.70S
WINNIPEG       LGT SNOW  25  21  86 E8        29.63S WCI  16
LYNN LAKE      MOCLDY   -17 -22  76 CALM      29.65F
CHURCHILL      CRYSTALS -13 -17  84 NW13      29.70S WCI -34
GILLAM         CLOUDY    -8 -13  77 NW6       29.70R WCI -21
$$
                ***SASKATCHEWAN***

CITY           SKY/WX    TMP DP  RH WIND       PRES   REMARKS
ESTEVAN        CLOUDY    25  23  93 E9        29.42F WCI  15
KINDERSLEY     FRZ RAIN  32  30  93 E21       29.17F WCI  20
LLOYDMINSTER   LGT SNOW  25  23  93 E18G26    29.23F BLWGSNOWWCI  11
PRINCE ALBERT  FLURRIES  21  19  93 E15       29.46F WCI   8
REGINA         FOG       32  32 100 SE15G23   29.36F VSB 1   WCI  22
YORKTON        CLOUDY    27  27 100 E14       29.48F FOG     WCI  15



USA.gov is the U.S. government's official web portal to all federal, state and local government web resources and services.